{"data":{"norad_id":51784,"epoch":"2026-05-25T02:31:32.444832Z","epoch_age_seconds":76336,"freshness":"FRESH","line1":"1 51784U 22017S   26145.10523663 -.00031909  00000+0 -20003-2 0  9991","line2":"2 51784  53.2139   6.0778 0002069  42.1747 317.9404 15.08754530233813","mean_motion":15.0875453,"eccentricity":0.0002069,"inclination_deg":53.2139,"raan_deg":6.0778,"arg_perigee_deg":42.1747,"mean_anomaly_deg":317.9404,"bstar":-0.0020003,"rev_number":23381,"period_min":95.442961155517,"perigee_km":538.573285387,"apogee_km":541.43601240131,"semimajor_km":6918.1416488942,"source":"CELESTRAK","updated_at":"2026-05-25T13:38:16.953179Z"}}